This is the latest recevied weather packets stored in our database for station/object EB2EMZ-14. If no packets are shown the sender has not sent any weather packets the latest 1 day(s).
| Time | Temp. | Humidity | Pressure | Rain* | Wind** | Luminosity | Snow |
|---|---|---|---|---|---|---|---|
| 1778017208 | 5.56° C | 89% | 1012.8 hPa | 0 mm | 0 m/s | 0 W/m² | - |
| 1778016910 | 6.11° C | 89% | 1012.9 hPa | 0 mm | 0 m/s | 0 W/m² | - |
| 1778016609 | 6.11° C | 89% | 1012.8 hPa | 0 mm | 0 m/s | 0 W/m² | - |
| 1778016309 | 6.11° C | 89% | 1013 hPa | 0 mm | 0 m/s | 0 W/m² | - |
| 1778016009 | 6.11° C | 89% | 1013 hPa | 0 mm | 0 m/s | 0 W/m² | - |
| 1778015708 | 6.11° C | 89% | 1012.9 hPa | 0 mm | 0 m/s | 0 W/m² | - |
| 1778015408 | 6.11° C | 89% | 1013 hPa | 0 mm | 0 m/s | 0 W/m² | - |
| 1778015109 | 5.56° C | 88% | 1013.2 hPa | 0 mm | 0 m/s | 0 W/m² | - |
| 1778014808 | 5.56° C | 88% | 1013.2 hPa | 0 mm | 0 m/s | 0 W/m² | - |
| 1778014509 | 6.11° C | 88% | 1012.9 hPa | 0 mm | 0 m/s | 0 W/m² | - |
| 1778014209 | 6.11° C | 88% | 1012.9 hPa | 0 mm | 0 m/s | 0 W/m² | - |
| 1778013909 | 6.11° C | 87% | 1012.9 hPa | 0 mm | 0 m/s | 0 W/m² | - |
| 1778013608 | 6.11° C | 87% | 1012.9 hPa | 0 mm | 0 m/s | 0 W/m² | - |
| 1778013309 | 6.11° C | 87% | 1012.9 hPa | 0 mm | 0 m/s | 0 W/m² | - |
| 1778013009 | 6.67° C | 87% | 1012.9 hPa | 0 mm | 0 m/s | 0 W/m² | - |
| 1778012710 | 6.67° C | 87% | 1012.8 hPa | 0 mm | 0 m/s | 0 W/m² | - |
| 1778012410 | 6.67° C | 87% | 1012.8 hPa | 0 mm | 0 m/s | 0 W/m² | - |
| 1778012110 | 6.67° C | 87% | 1012.7 hPa | 0 mm | 0 m/s | 0 W/m² | - |
| 1778011809 | 6.67° C | 87% | 1012.8 hPa | 0 mm | 0 m/s | 0 W/m² | - |
| 1778011509 | 7.22° C | 87% | 1012.7 hPa | 0 mm | 0 m/s | 0 W/m² | - |
| 1778011209 | 7.22° C | 87% | 1012.6 hPa | 0 mm | 0 m/s | 0 W/m² | - |
| 1778010909 | 7.22° C | 86% | 1012.7 hPa | 0 mm | 0 m/s | 0 W/m² | - |
| 1778010610 | 7.22° C | 86% | 1012.7 hPa | 0 mm | 0 m/s | 0 W/m² | - |
| 1778010309 | 7.22° C | 86% | 1012.6 hPa | 0 mm | 0 m/s | 0 W/m² | - |
| 1778010010 | 7.78° C | 85% | 1012.5 hPa | 0 mm | 0 m/s | 0 W/m² | - |
* Rain latest hour (hover to see other rain measurements)
** Current wind speed in m/s (hover to see current wind gust speed)